Location: Bremen
(53.0793°N, 8.8017°E)
Time: 22:03:08
(UTC+01:00)

S-56A Canister/Altair - Pass Details

Date: 03 December 2021
Orbit: 634 x 2499 km, 38.9° (Epoch: 26 January)

Event Time Altitude Azimuth Distance (km) Brightness Sun altitude
Rises 04:52:04 0° 257° (WSW) 3,719 - -29.8°
Reaches altitude 10° 04:56:38 10° 229° (SW) 2,421 - -29.1°
Maximum altitude 04:58:47 12° 206° (SSW) 2,127 - -28.8°
Drops below altitude 10° 05:00:46 10° 182° (S) 2,176 - -28.5°
Exits shadow 05:01:19 - 176° (S) 2,248 10.0 -28.4°
Sets 05:04:21 0° 151° (SSE) 2,953 10.9 -28.0°
